Wetbulb
59.50 58.08 58.35 54.68 46.84 46.48 43.99 46.24 50.06 48.59 49.57 56.65 57.93 58.67 57.87 59.10 56.99 52.85 67.45 69.39 69.96 69.21 69.51 66.56 69.66 69.55 70.35 71.52 72.36 72.70 73.08 72.56 73.17 73.05 72.63 72.22 69.78 70.08 69.31 68.19 66.53 64.97 66.31 65.52 68.94 70.11 70.85 71.53 71.14
56.58 56.53 53.82 51.61 44.71 42.31 44.28 48.69 47.44 48.33 50.17 54.06 57.03 58.45 57.62 57.47 63.60 64.19 66.42 69.45 69.56 69.50 68.79 67.64 70.24 70.02 69.35 69.80 70.51 71.80 72.27 72.13 72.05 72.34 72.03 70.88 69.52 69.25 69.29 67.78 66.34 65.67 66.96 67.02 68.35 69.84 70.06 71.10 69.73
56.84 56.58 48.89 47.56 45.34 43.10 44.42 48.18 48.63 49.49 51.66 53.16 55.19 61.46 58.53 59.26 63.44 64.77 69.01 69.85 69.81 69.40 69.30 68.57 69.89 69.85 69.59 69.62 70.33 70.77 71.08 71.35 71.43 71.57 71.28 70.86 70.16 68.59 68.43 68.26 66.81 66.57 67.79 69.65 69.14 67.46 69.43 69.25 68.67
53.78 52.54 49.65 44.84 43.77 45.94 47.05 48.37 49.89 49.49 52.42 53.44 55.75 57.65 62.67 65.85 64.59 67.18 68.87 69.90 69.27 69.51 69.63 68.76 69.55 69.55 69.43 68.71 69.67 70.47 70.37 70.31 70.91 71.17 71.30 71.07 68.61 67.55 66.51 65.96 65.65 67.42 68.03 68.22 65.61 65.04 66.12 68.37 67.91
53.39 50.67 45.08 44.59 43.74 45.92 48.30 49.72 51.05 49.83 53.47 54.57 56.39 54.71 59.09 65.45 68.02 67.97 67.99 68.77 68.52 69.12 70.11 68.94 69.08 69.65 69.42 68.94 68.95 69.24 69.77 69.66 69.73 70.39 70.32 70.12 69.80 69.73 67.97 67.55 67.98 68.69 65.59 63.74 63.60 63.43 64.35 67.31 67.93
48.65 50.13 43.82 42.04 43.46 46.32 48.70 51.08 52.23 52.38 54.15 55.52 53.58 53.40 59.47 66.30 66.57 67.76 68.02 67.75 69.03 68.99 69.80 69.63 68.96 69.14 68.52 68.22 67.94 67.85 68.39 68.75 69.12 69.30 69.27 69.40 69.02 68.86 67.89 67.88 68.36 67.92 67.08 65.69 64.60 65.95 66.94 66.96 67.48
47.97 47.57 44.39 44.01 43.66 44.73 46.64 50.13 49.14 49.57 52.57 52.42 56.59 53.47 57.75 62.18 66.95 68.16 67.54 67.64 67.64 68.16 68.78 69.81 69.23 68.74 67.53 66.66 66.05 66.51 67.29 67.53 67.89 68.39 68.32 68.01 67.92 66.39 65.78 65.96 65.60 64.98 64.88 65.53 66.60 66.35 66.57 66.76 67.12
50.12 48.63 44.46 44.70 43.57 43.26 47.29 49.11 50.65 49.53 48.23 51.92 52.62 52.47 54.43 62.25 66.76 67.47 67.65 67.83 68.94 68.46 67.91 68.58 69.39 69.45 67.47 65.16 64.96 65.31 66.44 66.82 67.18 67.54 67.65 68.06 66.66 65.01 64.22 64.06 64.01 63.81 64.59 63.10 62.07 61.02 64.30 65.59 65.69
52.39 45.70 42.99 43.57 44.44 45.15 48.41 47.08 51.14 52.26 50.45 51.70 52.77 54.99 62.52 65.04 66.20 65.36 65.03 65.22 65.97 65.22 66.66 68.84 68.77 69.43 68.58 67.90 65.60 66.11 66.49 66.66 66.22 65.60 66.28 65.28 66.89 65.13 63.56 63.14 63.36 62.99 62.62 62.69 61.21 60.07 60.73 62.55 63.64
49.55 46.04 44.58 47.27 47.47 46.88 48.20 47.45 48.69 48.50 49.47 50.32 52.74 56.05 60.69 63.50 63.38 62.11 61.68 61.98 62.71 62.35 62.62 64.14 66.26 67.36 67.83 66.95 65.33 68.25 67.85 66.86 66.64 66.76 65.89 65.67 64.90 63.43 63.41 63.21 63.05 62.31 61.66 61.29 60.75 59.84 59.20 58.94 58.08
49.69 45.06 47.37 48.46 49.26 48.82 48.11 48.17 50.36 48.12 47.36 51.25 50.82 54.31 57.19 59.39 60.21 60.86 60.11 60.83 59.90 60.88 61.08 61.59 64.43 66.36 67.41 66.80 66.68 66.82 66.48 66.06 65.68 65.41 64.88 63.79 62.93 62.50 62.24 62.14 62.29 61.77 60.07 60.06 59.35 58.94 58.20 57.49 57.96
47.63 49.26 49.58 50.13 50.43 49.70 49.26 50.87 49.49 49.95 49.84 52.99 53.55 55.40 56.55 57.31 58.41 59.34 59.67 60.53 58.78 59.76 59.72 60.48 63.66 64.76 65.09 64.64 64.20 64.27 63.50 63.46 62.68 62.86 63.34 62.86 61.96 61.13 60.70 60.78 59.80 59.95 60.02 59.60 58.87 57.44 56.65 56.66 57.88
49.25 49.68 50.87 51.57 51.56 51.03 51.19 49.52 49.90 49.60 52.04 53.64 54.01 55.60 55.87 56.57 57.64 58.79 60.18 59.82 60.59 59.29 59.69 59.35 61.40 62.82 63.98 63.14 62.46 61.62 60.61 59.61 59.25 59.96 60.10 61.17 60.45 60.23 60.25 59.60 59.13 58.93 59.17 58.67 59.09 58.18 57.25 56.92 57.69
51.37 51.11 50.95 51.68 51.30 51.03 49.58 49.21 49.53 50.24 52.86 52.37 53.03 53.82 54.92 55.71 56.25 56.88 56.23 56.12 56.87 57.39 58.93 59.38 59.55 61.40 61.64 62.05 61.59 59.98 58.82 57.63 57.71 58.17 58.90 60.16 59.96 59.11 59.20 57.88 57.60 56.87 57.27 57.86 58.11 58.75 59.49 58.99 58.78
51.60 48.84 50.98 51.07 49.90 48.18 50.55 46.50 46.63 51.86 52.89 51.35 51.62 52.87 53.67 54.49 55.23 54.90 56.09 55.88 56.44 57.45 57.91 57.51 58.26 59.85 59.67 59.90 59.08 58.27 56.36 56.13 56.05 57.19 57.76 57.84 58.37 56.16 55.50 54.92 54.49 55.08 55.63 55.59 55.43 54.47 55.04 56.10 58.94
49.16 49.45 44.61 48.72 49.17 49.54 48.34 42.64 48.84 51.84 50.76 50.07 50.87 51.91 52.72 53.72 54.37 55.32 56.22 56.26 57.41 58.70 56.18 56.57 55.44 56.75 57.18 57.57 55.96 55.73 55.16 55.46 55.94 57.02 56.70 56.14 56.16 55.66 54.67 54.03 53.41 52.48 53.22 52.30 50.80 50.32 50.88 52.88 53.98
47.99 42.87 44.43 46.51 49.89 48.18 47.34 44.39 48.86 51.67 50.52 50.00 51.14 51.57 52.21 53.15 54.13 54.97 55.93 56.31 56.59 56.58 55.65 55.43 54.69 54.19 55.55 55.53 54.78 54.74 54.82 54.23 55.25 56.08 55.03 54.90 54.22 53.81 52.30 52.34 52.34 51.46 50.17 49.48 48.60 47.92 47.61 46.77 47.52
42.56 43.31 45.39 45.36 48.33 48.44 47.07 46.61 49.70 51.34 50.92 50.72 51.34 51.84 51.99 52.37 53.14 55.51 55.82 56.72 55.78 56.57 55.51 55.06 54.54 54.27 54.96 54.29 53.91 53.68 53.58 53.66 53.68 53.86 53.59 53.69 52.60 52.37 51.24 51.57 51.02 50.59 49.34 48.78 48.52 47.84 47.88 47.30 46.95
46.27 45.42 44.83 47.29 48.99 47.59 46.79 47.15 48.89 50.27 49.92 50.09 50.45 51.33 51.80 52.67 54.26 56.18 56.75 56.52 55.10 55.58 54.26 53.67 53.12 53.55 52.49 51.84 50.93 50.69 50.55 51.85 52.49 52.90 53.34 53.15 52.66 52.32 51.15 50.42 49.82 50.19 49.08 48.37 48.11 47.42 46.51 45.93 47.34
45.69 44.95 44.81 46.86 48.76 47.97 47.27 46.76 49.08 49.23 49.22 49.76 50.02 50.91 51.60 52.44 53.00 54.52 55.57 55.76 55.15 54.36 54.17 53.38 53.18 53.29 52.64 51.78 51.59 51.58 51.80 51.74 51.89 52.38 52.23 52.45 52.85 51.80 51.37 50.61 49.07 49.19 47.80 48.02 48.22 47.48 45.29 45.88 46.16
44.83 44.76 44.01 43.65 47.12 49.17 47.26 45.40 47.30 48.54 49.37 49.56 50.80 51.45 51.78 51.50 51.35 52.69 54.81 54.88 55.22 54.00 53.86 53.86 53.21 52.99 52.90 51.90 51.65 51.58 51.32 50.28 49.29 49.62 50.30 51.60 52.03 52.42 51.80 50.94 49.76 48.84 48.49 47.40 47.00 46.42 45.88 43.53 45.10
41.93 47.48 46.04 45.40 44.35 40.06 47.33 38.25 44.98 47.10 46.76 48.37 49.84 51.68 51.70 52.16 52.84 53.06 54.25 53.84 54.86 54.06 55.26 54.44 54.00 53.07 52.99 53.02 50.52 49.74 48.04 46.78 47.95 48.37 49.39 50.08 51.86 51.30 51.09 50.93 50.43 48.94 48.51 47.50 47.70 47.84 46.83 45.26 42.59
44.29 47.76 46.60 46.83 45.31 44.14 44.22 40.53 44.22 47.06 45.42 47.05 49.71 50.61 51.60 52.53 52.73 52.24 52.40 53.26 54.13 54.43 54.67 54.34 54.11 53.54 53.28 52.98 51.55 49.79 48.67 48.60 49.11 49.13 49.72 49.09 49.54 50.14 50.21 49.85 49.33 48.08 48.01 47.47 46.57 46.28 46.25 45.75 44.26
49.17 47.66 47.53 48.27 44.80 38.96 43.98 42.20 41.89 44.64 46.16 47.22 49.20 50.69 51.43 51.79 51.86 52.28 53.10 53.75 53.06 55.00 54.53 54.93 53.95 53.34 53.42 52.70 51.89 50.26 48.14 48.63 48.00 48.18 46.44 47.55 47.69 47.35 48.23 47.43 46.03 45.93 45.50 44.78 44.20 43.91 43.94 43.73 43.60
47.81 44.26 38.97 37.92 40.24 38.01 44.57 41.14 43.21 48.23 49.07 48.46 48.36 49.41 50.93 51.92 51.43 52.10 52.08 52.48 53.04 53.34 54.29 54.87 53.97 52.60 53.02 52.81 52.05 50.57 49.65 48.96 48.22 47.89 46.29 45.89 43.94 44.25 44.05 44.23 43.80 43.21 43.00 43.24 43.01 42.13 41.78 41.96 41.68
44.85 43.65 38.96 30.46 32.71 35.04 42.09 37.54 43.15 49.34 49.77 49.74 50.02 51.09 51.17 52.01 52.53 52.24 53.21 53.83 53.54 54.04 54.13 53.96 52.98 52.27 52.58 52.23 51.85 51.02 50.26 48.63 47.97 47.25 45.16 43.38 42.83 43.00 44.03 43.01 42.93 42.86 42.93 42.02 41.70 41.20 40.98 40.86 40.76
44.45 41.82 45.72 38.26 36.60 34.47 38.53 43.68 48.08 50.17 49.00 49.34 49.81 50.55 50.74 51.41 52.09 52.65 53.00 53.27 53.42 53.54 53.12 52.83 52.76 53.04 52.53 51.98 51.52 50.31 49.30 47.76 45.93 45.86 44.22 43.09 43.40 43.13 43.40 42.79 42.22 42.05 41.74 41.26 40.67 39.59 39.65 40.27 40.14
46.11 48.03 39.27 41.11 31.33 29.75 36.82 38.48 40.29 46.45 47.68 49.14 49.70 50.13 50.87 51.95 52.09 52.56 52.54 52.36 52.92 53.29 53.64 53.49 53.26 51.31 50.49 50.46 49.04 46.67 45.86 45.36 43.96 43.48 42.61 42.36 41.96 42.16 41.90 41.33 41.03 40.60 40.24 39.97 39.18 38.09 38.69 38.83 39.10
44.18 42.72 43.93 43.09 40.23 33.13 31.33 36.07 47.21 46.45 48.17 48.76 49.33 50.18 50.49 51.23 51.71 52.04 52.50 52.68 52.47 52.73 51.83 51.22 49.99 49.00 48.28 47.66 45.62 44.07 43.84 43.65 42.63 41.86 41.31 41.13 41.60 41.04 40.77 40.22 39.44 39.28 38.81 38.61 37.51 37.30 37.78 37.39 37.30
46.44 44.50 44.38 36.23 35.47 37.86 36.36 36.10 48.37 50.15 50.95 50.09 50.34 50.35 50.95 51.18 50.95 50.74 51.05 51.47 51.32 50.94 50.64 50.65 48.78 47.71 46.66 45.79 43.79 42.74 42.29 41.80 40.79 40.56 41.01 41.80 40.38 40.70 40.10 39.60 39.20 38.65 38.07 37.65 36.86 36.17 36.71 36.08 35.57
MSLP
1010.37 1008.83 1008.90 1008.10 1007.70 1005.64 1004.25 1003.32 1003.19 1003.49 1003.97 1004.89 1005.06 1006.04 1007.14 1008.17 1008.55 1010.55 1011.67 1012.70 1012.95 1012.88 1012.76 1013.50 1013.53 1013.63 1013.70 1014.15 1014.62 1014.70 1014.43 1014.36 1014.58 1014.57 1014.71 1014.93 1015.38 1015.36 1015.68 1015.69 1016.83 1018.55 1018.75 1018.41 1017.47 1017.32 1016.83 1016.63 1016.38
1010.09 1008.76 1008.04 1007.41 1006.37 1004.85 1004.21 1003.74 1003.87 1004.53 1005.41 1005.90 1005.90 1006.39 1008.21 1009.29 1009.43 1010.55 1011.66 1012.52 1013.06 1012.90 1013.17 1013.80 1014.14 1014.46 1014.04 1014.48 1014.72 1014.90 1014.69 1014.80 1015.08 1015.25 1014.74 1015.24 1015.52 1015.70 1016.09 1015.87 1015.77 1017.43 1017.15 1016.54 1016.29 1017.22 1016.89 1017.00 1017.05
1010.53 1008.90 1008.13 1006.42 1005.32 1004.86 1004.91 1004.77 1004.86 1005.24 1005.76 1006.05 1006.19 1007.54 1009.27 1010.22 1010.44 1010.88 1011.59 1012.43 1012.50 1012.58 1013.12 1014.03 1014.24 1014.45 1014.41 1014.65 1014.67 1015.01 1015.18 1015.20 1015.34 1015.37 1015.20 1015.14 1015.54 1016.06 1016.22 1016.19 1016.78 1016.75 1016.65 1016.70 1017.66 1018.31 1017.06 1017.58 1017.58
1008.90 1008.05 1007.70 1005.72 1005.15 1005.45 1005.49 1005.64 1005.60 1005.52 1006.05 1006.60 1006.41 1008.41 1010.19 1010.64 1010.70 1011.30 1011.75 1012.24 1012.44 1012.48 1012.63 1014.19 1014.44 1014.46 1014.87 1014.86 1015.09 1015.10 1015.22 1015.40 1015.63 1015.55 1015.73 1015.53 1016.04 1016.02 1016.31 1016.42 1016.39 1016.71 1016.60 1017.00 1017.95 1017.80 1018.33 1018.70 1017.83
1008.10 1007.10 1006.16 1005.13 1005.37 1006.17 1006.28 1006.10 1005.83 1005.73 1006.12 1006.41 1007.28 1010.39 1010.90 1012.07 1011.33 1011.37 1011.81 1011.85 1012.19 1012.73 1013.08 1013.97 1014.23 1014.81 1015.06 1015.18 1015.23 1015.37 1015.54 1015.56 1015.58 1015.48 1015.74 1015.77 1015.95 1016.06 1016.16 1016.36 1016.51 1016.39 1016.72 1017.62 1017.36 1016.67 1017.45 1018.36 1017.90
1007.34 1005.83 1005.16 1005.20 1006.19 1006.51 1006.94 1006.60 1006.17 1006.50 1006.97 1007.32 1010.25 1012.10 1010.89 1011.81 1011.80 1011.79 1011.47 1011.43 1011.62 1012.54 1013.13 1013.85 1014.56 1014.82 1015.18 1015.15 1015.39 1015.56 1015.65 1015.60 1015.61 1015.59 1015.67 1015.86 1016.13 1016.10 1016.14 1016.15 1016.16 1016.08 1016.40 1016.90 1017.39 1017.13 1017.58 1017.31 1017.84
1006.52 1005.43 1005.04 1005.78 1006.55 1006.87 1007.50 1007.48 1007.37 1007.00 1007.27 1008.10 1010.19 1011.20 1012.28 1011.27 1011.74 1011.59 1011.40 1011.77 1012.10 1012.43 1012.72 1013.12 1014.02 1014.54 1015.08 1015.34 1015.46 1015.64 1015.65 1015.65 1015.69 1015.77 1015.74 1016.02 1016.20 1016.37 1016.34 1016.45 1016.50 1016.34 1016.30 1016.78 1017.12 1017.43 1017.75 1017.85 1017.28
1006.07 1005.07 1005.12 1005.97 1006.64 1007.35 1007.65 1007.87 1008.02 1007.93 1008.23 1008.54 1008.84 1009.77 1010.65 1010.58 1011.62 1011.77 1011.83 1011.83 1012.10 1012.43 1012.68 1012.98 1013.17 1013.97 1014.84 1015.20 1015.37 1015.54 1015.67 1015.71 1015.77 1015.90 1016.13 1016.26 1016.58 1016.81 1016.79 1016.85 1016.97 1016.82 1016.59 1016.86 1017.15 1017.73 1017.95 1017.87 1017.85
1005.90 1005.34 1005.66 1006.38 1007.03 1007.46 1007.56 1007.78 1008.07 1008.63 1008.40 1008.77 1009.00 1009.40 1010.21 1010.85 1011.38 1011.58 1011.84 1011.79 1011.99 1012.61 1013.15 1013.49 1013.70 1013.87 1014.29 1014.43 1014.98 1015.28 1015.54 1015.67 1015.80 1015.95 1016.19 1016.38 1016.17 1016.45 1017.08 1017.14 1017.20 1017.06 1016.92 1016.82 1017.00 1017.26 1017.42 1017.59 1017.72
1006.05 1005.45 1006.61 1007.68 1007.92 1007.90 1007.72 1008.16 1008.24 1008.50 1008.16 1008.40 1009.08 1009.77 1010.36 1010.88 1011.24 1011.28 1011.24 1011.30 1011.99 1012.96 1013.47 1014.05 1014.58 1014.67 1014.70 1014.31 1014.48 1014.89 1015.06 1015.45 1015.69 1015.61 1015.84 1015.89 1016.24 1016.84 1016.82 1017.14 1017.38 1017.43 1017.35 1017.17 1017.09 1016.95 1016.89 1016.84 1016.74
1007.12 1006.92 1007.71 1008.28 1008.97 1008.84 1008.52 1008.34 1008.34 1008.60 1008.19 1008.34 1008.60 1009.16 1010.12 1010.61 1010.79 1011.03 1011.10 1011.37 1012.12 1013.15 1013.85 1014.38 1014.66 1014.77 1014.67 1014.61 1014.86 1014.99 1015.34 1015.53 1015.71 1015.87 1016.01 1016.31 1016.54 1016.75 1016.81 1016.83 1016.96 1017.17 1017.66 1017.40 1017.26 1017.16 1017.20 1017.23 1017.24
1007.88 1008.31 1008.50 1008.80 1009.27 1009.18 1008.85 1008.94 1008.65 1008.48 1008.50 1008.89 1009.14 1009.34 1009.93 1010.48 1010.72 1011.09 1011.25 1011.62 1012.27 1012.82 1013.41 1014.08 1014.55 1014.53 1014.45 1014.50 1014.49 1014.74 1014.92 1015.26 1015.58 1015.82 1015.85 1016.06 1016.37 1016.69 1016.76 1016.93 1016.88 1016.90 1016.90 1017.03 1017.25 1017.52 1017.53 1017.65 1017.09
1008.06 1008.58 1008.85 1009.09 1009.12 1009.08 1009.07 1008.75 1008.42 1008.52 1008.46 1008.89 1009.28 1009.67 1009.99 1010.35 1010.71 1010.97 1011.35 1011.75 1012.34 1012.93 1013.20 1013.82 1014.33 1014.62 1014.66 1014.71 1015.01 1015.24 1015.31 1015.50 1015.63 1015.75 1016.03 1015.97 1016.03 1016.41 1016.33 1016.62 1016.64 1016.65 1016.65 1016.73 1016.72 1016.71 1017.00 1017.26 1017.21
1008.75 1008.74 1008.64 1008.66 1008.57 1008.71 1008.71 1008.42 1008.23 1007.91 1008.05 1008.89 1009.32 1009.72 1010.15 1010.39 1010.67 1010.95 1011.54 1012.12 1012.53 1012.86 1013.22 1013.86 1014.36 1014.67 1014.77 1014.95 1015.21 1015.50 1015.53 1015.89 1015.95 1016.14 1016.25 1016.25 1016.35 1016.61 1016.74 1016.82 1016.93 1016.98 1017.05 1017.08 1017.07 1017.01 1016.91 1016.87 1016.79
1008.83 1008.55 1008.09 1008.22 1008.32 1008.52 1008.46 1007.32 1007.19 1007.27 1007.69 1008.44 1008.85 1009.37 1009.79 1010.01 1010.28 1010.70 1011.13 1011.73 1012.22 1012.55 1013.18 1013.85 1014.26 1014.47 1014.82 1015.03 1015.37 1015.65 1015.85 1015.97 1016.21 1016.44 1016.52 1016.53 1016.52 1016.75 1016.73 1016.92 1017.15 1017.26 1017.26 1017.24 1017.33 1017.35 1017.18 1017.06 1016.64
1008.46 1007.97 1007.25 1007.49 1007.96 1008.24 1008.47 1007.36 1006.62 1006.68 1007.08 1007.72 1008.39 1008.78 1009.24 1009.56 1009.85 1010.24 1010.74 1011.45 1011.96 1012.55 1013.16 1013.67 1013.86 1014.20 1014.57 1014.82 1015.04 1015.28 1015.58 1015.89 1016.03 1016.21 1016.49 1016.63 1016.56 1016.41 1016.46 1016.69 1017.23 1017.48 1017.45 1017.42 1017.52 1017.40 1017.18 1016.92 1016.77
1008.07 1007.84 1007.74 1007.50 1007.15 1007.82 1007.98 1007.25 1006.79 1006.47 1006.32 1006.62 1007.20 1007.70 1008.05 1008.55 1008.98 1009.53 1010.18 1010.89 1011.71 1012.50 1013.14 1013.66 1014.12 1014.52 1014.74 1014.90 1015.01 1015.05 1015.26 1015.53 1015.53 1015.74 1016.14 1016.59 1016.74 1016.66 1016.46 1016.58 1016.94 1017.05 1017.03 1017.26 1017.57 1017.54 1017.40 1017.20 1016.86
1009.20 1008.87 1008.41 1007.64 1007.49 1007.85 1007.71 1007.09 1006.39 1005.92 1005.71 1005.78 1006.24 1006.87 1007.48 1008.02 1008.38 1008.71 1009.47 1010.52 1011.61 1012.51 1013.15 1013.65 1014.08 1014.52 1014.76 1014.98 1015.19 1015.24 1015.54 1015.49 1015.31 1015.55 1015.71 1016.13 1016.27 1016.36 1016.32 1016.25 1016.46 1016.65 1016.77 1016.97 1017.29 1017.47 1017.43 1017.23 1016.96
1009.81 1009.15 1008.45 1007.94 1007.89 1007.78 1007.32 1006.62 1005.97 1005.50 1005.83 1006.18 1006.79 1007.29 1007.80 1008.30 1008.59 1008.90 1009.48 1010.55 1011.70 1012.65 1013.38 1013.94 1014.22 1014.53 1014.92 1015.27 1015.51 1015.66 1015.65 1015.53 1015.48 1015.44 1015.53 1015.87 1016.03 1016.22 1016.28 1016.20 1016.17 1016.22 1016.56 1016.81 1016.95 1017.08 1017.29 1017.27 1016.95
1010.10 1009.38 1009.15 1009.00 1008.62 1008.24 1007.13 1006.02 1005.67 1005.81 1006.55 1007.05 1007.51 1008.04 1008.61 1009.00 1009.38 1009.65 1010.20 1010.90 1011.81 1012.68 1013.34 1013.78 1014.08 1014.35 1014.71 1015.08 1015.24 1015.27 1015.19 1015.12 1015.05 1015.02 1015.21 1015.43 1015.74 1015.88 1015.94 1016.03 1016.11 1016.21 1016.38 1016.64 1016.66 1016.71 1016.96 1016.99 1016.73
1010.76 1010.40 1010.38 1010.09 1009.14 1007.29 1006.93 1004.98 1005.18 1006.21 1006.80 1007.54 1008.15 1008.63 1008.96 1009.58 1010.05 1010.29 1010.75 1011.30 1011.79 1012.49 1013.07 1013.45 1013.57 1013.63 1013.82 1014.17 1014.55 1014.54 1014.62 1014.77 1014.86 1014.78 1014.97 1015.16 1015.19 1015.36 1015.53 1015.58 1015.76 1016.02 1016.19 1016.43 1016.50 1016.55 1016.66 1016.79 1016.59
1011.28 1011.04 1011.08 1010.45 1009.70 1008.45 1007.91 1006.38 1005.57 1005.73 1006.66 1007.22 1007.98 1008.53 1009.21 1009.76 1010.15 1010.48 1010.72 1011.13 1011.60 1012.00 1012.42 1012.86 1013.11 1013.15 1013.23 1013.46 1013.85 1014.21 1014.15 1014.46 1014.56 1014.46 1014.42 1014.42 1014.53 1014.91 1015.04 1015.30 1015.51 1015.83 1015.99 1016.11 1016.27 1016.24 1016.35 1016.49 1016.58
1011.95 1011.84 1011.07 1010.08 1009.57 1009.11 1007.84 1007.37 1005.85 1005.79 1006.02 1006.61 1007.44 1008.38 1009.16 1009.82 1010.25 1010.66 1010.85 1010.98 1011.18 1011.60 1012.09 1012.47 1012.78 1012.86 1012.80 1012.87 1013.02 1013.38 1013.69 1013.82 1013.82 1014.07 1014.08 1014.17 1014.41 1014.38 1014.50 1014.82 1015.37 1015.98 1016.11 1016.12 1016.24 1016.31 1016.31 1016.28 1016.22
1012.29 1011.43 1010.27 1009.36 1010.07 1009.62 1008.32 1008.10 1006.47 1005.60 1006.04 1006.61 1007.51 1008.25 1009.09 1009.90 1010.46 1010.74 1010.79 1010.84 1011.06 1011.40 1011.72 1012.11 1012.41 1012.49 1012.39 1012.40 1012.45 1012.73 1013.01 1013.50 1013.66 1013.86 1014.05 1014.07 1014.23 1014.56 1014.90 1015.38 1015.94 1016.24 1016.42 1016.49 1016.48 1016.50 1016.38 1016.21 1016.11
1012.64 1012.34 1011.52 1011.39 1010.87 1010.41 1009.53 1008.93 1007.28 1006.24 1006.02 1006.90 1007.80 1008.80 1009.46 1009.96 1010.45 1010.75 1011.00 1011.01 1011.11 1011.35 1011.58 1011.65 1011.65 1011.65 1011.72 1011.88 1012.03 1012.20 1012.50 1012.91 1013.33 1013.73 1013.96 1014.23 1014.42 1014.82 1015.17 1015.63 1016.11 1016.61 1016.61 1016.63 1016.66 1016.53 1016.35 1016.16 1016.00
1013.43 1013.79 1013.84 1013.87 1013.40 1012.62 1011.39 1009.25 1006.86 1006.18 1006.40 1007.27 1008.24 1009.02 1009.46 1009.92 1010.28 1010.40 1010.66 1010.93 1011.08 1011.24 1011.30 1011.39 1011.31 1011.04 1010.86 1010.78 1010.79 1010.88 1011.42 1012.01 1012.68 1013.29 1013.89 1014.44 1014.86 1014.87 1015.15 1015.58 1016.26 1016.59 1016.53 1016.64 1016.54 1016.33 1016.06 1015.87 1015.68
1013.87 1014.14 1014.83 1015.18 1015.20 1014.74 1012.52 1009.93 1007.80 1006.43 1006.78 1007.76 1008.38 1008.75 1009.53 1009.84 1009.92 1010.26 1010.45 1010.84 1011.16 1011.27 1011.22 1011.22 1011.07 1010.89 1010.59 1010.37 1010.26 1010.32 1010.73 1011.64 1012.39 1013.16 1014.02 1014.68 1015.16 1015.49 1015.49 1015.96 1016.19 1016.43 1016.28 1016.22 1016.05 1015.80 1015.56 1015.38 1015.19
1014.51 1014.87 1015.21 1015.73 1015.68 1014.61 1012.69 1011.28 1008.84 1007.55 1007.49 1007.91 1008.41 1008.91 1009.37 1009.61 1009.90 1010.20 1010.43 1010.76 1011.18 1011.24 1011.03 1011.04 1010.83 1010.54 1010.53 1010.58 1010.61 1010.92 1011.38 1012.00 1012.82 1013.53 1014.35 1015.17 1015.35 1015.61 1015.98 1016.05 1016.14 1016.09 1015.90 1015.75 1015.53 1015.28 1015.05 1014.85 1014.60
1014.48 1014.77 1015.17 1015.43 1015.93 1015.41 1013.80 1011.63 1009.90 1009.16 1008.57 1008.75 1009.05 1009.51 1009.83 1009.73 1009.93 1010.17 1010.38 1010.70 1011.05 1011.19 1011.31 1011.04 1010.69 1010.44 1010.42 1010.74 1011.32 1011.71 1012.13 1012.69 1013.35 1014.00 1014.66 1015.22 1015.68 1015.98 1016.05 1015.88 1015.72 1015.57 1015.34 1015.14 1014.90 1014.71 1014.49 1014.29 1014.06
1014.75 1014.75 1015.07 1015.78 1016.16 1015.95 1014.78 1012.10 1010.91 1009.24 1008.82 1008.80 1008.69 1009.01 1009.37 1009.65 1009.98 1010.49 1010.57 1010.61 1010.93 1011.25 1011.39 1011.12 1010.45 1010.27 1010.41 1010.81 1011.68 1012.30 1012.69 1013.16 1013.73 1014.47 1014.78 1015.27 1015.52 1015.78 1015.50 1015.43 1015.18 1014.93 1014.69 1014.49 1014.28 1014.08 1013.87 1013.65 1013.50
Wind_Speed
15 15 9 7 6 7 14 6 12 11 6 10 12 16 19 16 14 8 11 7 8 6 10 13 11 12 11 10 10 11 12 14 14 10 5 6 13 17 18 18 9 4 12 8 13 19 13 10 9
10 16 5 6 8 10 8 11 9 15 11 2 5 11 22 16 19 14 13 9 8 5 15 13 12 10 9 9 9 10 13 14 12 10 9 12 14 15 12 16 21 18 23 10 9 17 18 9 8
10 13 6 6 10 5 6 14 11 12 4 5 3 21 9 5 13 8 16 11 11 7 13 11 10 9 9 10 11 11 11 11 12 12 12 10 10 15 15 11 9 13 13 11 8 26 22 12 7
7 5 6 10 10 13 11 9 6 6 6 4 4 12 9 3 9 15 7 13 9 8 13 10 10 11 10 10 10 11 11 11 10 10 10 13 8 7 9 11 10 9 3 5 10 14 24 23 11
8 6 11 2 15 11 8 1 3 2 5 2 7 10 12 10 10 9 8 8 11 9 7 10 11 9 10 9 10 9 9 9 9 9 9 12 12 10 7 7 8 7 6 5 10 18 15 17 8
9 10 12 8 9 10 9 11 7 6 6 4 15 17 7 5 4 6 7 7 9 11 8 9 10 9 8 8 7 6 5 5 6 6 7 10 11 11 14 14 12 13 6 1 5 10 14 10 3
14 11 5 11 7 8 6 6 10 8 6 6 17 17 5 6 7 3 6 8 6 6 5 9 10 10 9 8 7 3 2 3 4 5 5 6 10 15 14 15 17 15 14 15 10 7 7 7 7
8 9 6 4 6 10 3 1 5 7 8 8 6 4 3 14 11 4 3 3 3 4 6 3 4 12 11 7 10 7 5 5 4 5 6 6 12 14 14 12 13 13 14 16 16 15 9 3 4
11 8 8 8 10 7 7 8 7 1 7 2 8 10 11 13 12 7 7 6 5 5 6 5 7 4 3 4 9 8 8 8 8 7 7 6 4 5 9 10 7 10 11 11 11 10 10 9 5
8 6 15 8 7 10 5 2 7 4 7 9 6 4 4 8 8 8 8 7 6 5 6 6 5 6 4 6 3 4 5 3 2 3 4 3 5 5 5 8 6 5 5 6 5 8 6 4 4
13 13 4 6 10 9 10 9 5 7 10 13 6 9 5 6 6 4 5 5 7 8 5 6 5 4 4 4 4 1 3 1 3 5 5 5 2 3 1 2 2 3 2 2 2 4 3 1 1
8 6 7 9 5 6 8 10 8 8 8 6 4 4 5 6 5 3 4 3 5 4 7 6 3 2 2 3 3 3 3 2 3 3 2 4 3 3 1 3 1 2 2 3 2 2 2 4 2
5 3 2 3 3 3 7 10 7 8 10 3 4 2 6 6 7 4 2 2 1 2 4 6 5 3 3 0 4 4 2 3 1 1 3 4 2 3 3 4 4 1 2 2 3 2 3 4 4
3 4 1 2 4 6 8 12 10 10 6 4 6 8 8 8 8 5 6 5 5 5 3 4 4 3 2 1 4 3 2 3 1 2 2 1 3 3 3 1 2 2 3 4 4 2 4 5 5
4 9 13 9 2 9 8 17 16 8 9 7 9 10 10 11 11 9 7 7 7 4 4 4 4 4 3 5 4 4 3 1 2 3 2 4 3 2 3 3 3 4 1 1 1 2 3 3 4
13 8 7 5 3 3 5 13 6 8 9 11 11 11 11 13 12 10 8 6 4 2 6 6 5 7 6 5 4 4 5 4 3 4 4 3 1 1 2 2 3 2 2 0 2 2 3 3 3
3 10 11 8 6 1 6 15 15 14 11 12 12 11 10 13 14 12 8 8 5 4 3 4 4 3 5 3 3 2 4 2 4 5 5 4 2 2 2 3 4 3 1 1 1 3 3 3 4
11 10 11 12 8 9 12 15 13 14 15 12 9 9 9 6 7 10 10 6 7 4 3 3 4 5 4 2 4 2 4 5 2 4 5 6 4 4 3 3 4 3 2 1 3 2 3 4 5
11 13 15 14 7 15 16 17 15 5 8 8 8 7 7 5 6 5 6 8 7 3 5 5 5 5 3 3 2 3 3 3 3 4 5 6 4 6 4 3 1 1 1 2 2 2 3 4 4
16 15 13 13 17 15 19 19 13 8 7 6 4 6 6 5 5 6 4 6 5 5 5 7 7 6 5 4 4 4 4 5 5 4 6 5 6 4 4 4 3 1 2 3 3 3 2 3 4
14 9 13 17 18 16 12 12 10 6 11 8 6 4 5 4 6 5 0 2 5 6 6 7 8 8 8 9 5 4 3 3 2 3 3 6 8 7 6 5 3 2 1 2 2 3 5 4 3
11 13 16 17 14 10 15 7 4 12 11 10 7 5 4 5 4 4 1 2 4 8 7 7 7 8 8 9 7 8 5 7 7 6 6 9 10 7 7 4 3 2 2 3 3 3 2 3 4
11 16 19 19 15 9 5 5 11 8 9 12 9 7 6 4 5 6 6 4 2 1 7 7 7 8 9 7 9 8 6 5 3 3 4 3 3 2 1 2 3 3 3 4 5 6 6 4 4
13 18 20 3 1 3 5 2 10 6 4 5 4 5 7 6 7 5 6 5 5 1 5 6 7 10 10 8 8 9 9 5 4 4 1 1 3 4 7 7 6 6 5 5 5 5 7 6 5
16 14 5 5 2 4 12 9 11 17 2 4 7 7 5 3 4 5 7 7 5 6 5 5 8 11 10 9 9 9 9 8 7 5 2 2 3 2 4 5 7 4 4 6 6 6 6 6 7
13 7 2 4 4 10 17 7 6 4 6 7 4 1 7 4 2 6 6 5 6 6 7 7 9 10 9 12 12 9 9 5 5 3 3 4 2 1 4 3 2 4 4 5 6 5 6 7 7
7 5 5 5 1 2 6 13 15 6 7 9 7 8 6 5 5 7 6 7 6 6 6 8 10 12 10 9 7 6 6 6 5 6 6 3 1 2 3 4 3 5 6 7 7 5 7 7 8
7 6 3 1 3 6 8 15 10 11 16 20 13 10 10 7 10 6 5 7 9 12 9 11 8 7 7 9 5 5 6 7 6 6 6 2 3 3 3 3 5 6 7 7 7 6 7 8 7
3 6 5 7 6 5 6 6 12 22 21 10 13 14 13 6 6 5 3 4 8 9 12 14 9 7 5 5 5 6 4 6 6 5 4 5 4 5 5 6 6 8 9 8 8 9 10 11 11
5 9 8 2 8 9 10 13 19 9 5 21 16 10 10 9 9 11 11 8 10 9 14 18 9 6 2 3 7 4 4 5 5 4 2 1 3 7 5 8 9 10 10 9 10 11 11 11 12
Wind_Direction
290 266 237 272 242 221 238 233 72 59 59 33 8 79 76 57 30 80 85 74 71 37 130 77 46 30 26 26 23 27 42 41 39 48 41 69 98 100 105 110 54 339 295 305 298 289 238 206 186
309 300 250 271 250 255 36 72 73 61 61 57 245 39 43 64 88 94 95 112 100 61 73 70 56 36 32 24 31 36 48 52 45 35 54 128 120 113 130 151 169 206 232 246 239 277 255 222 205
265 266 282 230 233 27 77 36 52 64 57 214 141 101 134 137 60 95 110 110 113 73 75 72 66 54 45 35 33 44 57 60 56 45 44 72 122 152 169 186 198 205 236 253 260 20 317 266 222
265 214 259 253 39 46 44 35 10 184 163 275 329 100 88 60 85 90 76 106 100 121 85 83 68 55 51 54 50 43 42 55 72 73 63 72 142 146 148 177 188 211 267 311 48 36 354 315 316
232 263 245 263 60 46 41 248 234 175 81 80 5 45 65 76 89 96 112 96 106 84 99 92 82 73 67 60 55 47 48 49 45 54 68 78 83 108 153 190 215 237 184 138 127 138 186 232 253
256 244 266 95 90 89 29 4 26 22 38 317 60 16 64 89 147 130 153 102 103 123 134 132 120 110 100 85 70 65 57 56 67 67 66 82 91 95 92 92 88 77 80 69 135 154 182 185 173
263 285 55 94 90 79 27 19 8 356 47 28 141 143 217 215 126 239 89 86 84 87 88 130 139 144 134 133 125 120 129 123 125 116 105 100 100 98 97 94 93 87 76 67 78 92 147 149 146
293 290 80 57 137 93 75 139 345 5 52 320 355 70 201 180 155 189 92 85 116 131 59 28 171 152 162 164 147 147 169 159 135 122 126 128 104 107 105 96 98 93 90 90 81 73 48 141 155
286 289 99 60 20 84 107 296 121 305 281 24 357 33 100 139 156 182 175 204 160 73 96 67 348 37 92 213 148 151 169 158 146 139 155 174 149 140 140 97 88 100 98 100 94 82 89 74 355
298 53 58 26 10 350 4 312 14 314 221 210 178 95 95 152 170 199 201 190 108 85 80 66 33 8 331 283 94 91 66 120 206 101 169 220 59 63 57 130 112 93 70 68 69 66 44 33 106
22 49 38 70 37 334 327 306 127 285 290 10 26 147 165 196 213 223 274 37 80 92 78 52 34 31 320 35 46 81 122 301 95 54 17 67 66 76 218 51 151 115 56 341 17 5 14 9 6
99 52 3 39 20 319 331 344 310 302 303 34 331 9 157 213 220 222 257 122 163 149 118 119 119 140 68 335 60 125 83 87 77 73 61 141 161 142 247 120 17 182 261 284 193 213 281 288 221
52 74 333 120 230 282 309 284 275 274 288 124 253 198 228 230 225 203 246 159 26 218 144 145 155 179 146 32 65 73 111 62 94 99 51 340 117 126 197 151 178 182 178 203 240 254 238 241 263
31 316 341 248 284 276 260 280 282 273 206 202 231 228 232 219 243 216 192 240 206 229 151 156 188 184 194 121 127 129 99 126 170 92 76 25 63 357 90 105 111 139 29 4 346 317 268 252 240
304 261 204 199 261 292 351 298 215 217 165 233 229 224 245 238 220 232 231 199 237 207 176 141 211 155 206 140 161 205 140 123 119 99 66 22 84 54 339 55 15 60 146 228 297 319 314 312 284
253 228 334 105 121 150 251 299 23 189 190 207 233 223 219 233 244 232 213 233 217 215 160 184 204 159 190 199 168 208 152 202 166 147 136 149 154 178 192 118 70 20 303 45 348 305 310 306 287
245 359 356 314 202 25 273 298 302 296 238 224 216 230 228 214 211 218 221 191 185 181 176 201 170 230 194 199 248 189 114 241 186 150 157 169 181 244 266 116 107 294 306 113 75 345 315 313 301
344 335 318 305 25 343 311 291 295 288 264 258 228 220 212 239 264 203 183 168 145 160 192 224 188 215 205 214 249 161 184 240 150 206 176 171 169 212 273 170 164 201 248 106 49 311 307 294 279
314 299 314 359 354 320 312 300 286 348 9 28 17 22 20 351 343 351 127 126 143 185 175 238 236 230 176 239 233 244 218 233 214 229 162 176 204 197 230 278 39 175 266 26 233 246 318 314 292
315 321 349 322 334 310 296 289 286 88 74 39 53 80 41 24 4 24 60 142 158 199 231 211 231 223 188 222 218 230 215 224 203 211 170 179 223 235 217 222 219 261 63 325 298 260 262 266 292
327 3 336 319 320 302 358 299 189 138 117 124 101 138 123 82 8 8 111 291 175 202 215 248 233 230 204 202 241 223 214 292 300 237 193 191 209 209 230 232 221 236 200 255 321 317 309 281 309
312 7 324 308 318 326 312 289 263 163 138 160 147 99 84 47 34 8 146 233 229 213 198 215 256 245 236 197 208 246 222 212 228 233 237 226 192 212 209 236 260 254 235 253 259 274 321 320 295
302 319 291 285 280 316 329 284 49 150 181 167 159 118 96 42 35 2 344 356 221 340 194 207 235 252 250 242 209 209 229 239 245 264 252 177 154 164 134 47 355 329 348 354 342 330 314 296 284
297 312 305 252 172 276 343 320 299 354 48 71 100 60 65 39 23 348 317 321 344 230 182 200 227 251 251 247 241 204 209 231 249 226 19 51 66 56 54 44 41 25 4 352 347 325 316 305 297
353 343 334 355 278 252 21 314 262 291 146 100 49 33 47 25 289 11 341 338 356 339 322 245 224 234 242 242 241 230 201 202 226 249 198 173 89 67 54 47 25 356 342 323 310 301 290 287 282
304 346 319 309 322 315 318 262 322 341 124 110 126 230 244 258 331 337 321 332 338 349 332 299 291 285 251 237 235 212 203 185 189 183 102 64 57 128 90 69 257 290 301 284 274 271 271 272 271
346 339 355 284 169 238 255 286 319 352 98 93 303 271 47 350 321 342 335 333 6 348 317 288 290 303 299 298 260 215 176 141 116 105 104 106 10 296 62 10 309 276 263 264 266 264 265 259 264
242 345 308 183 283 298 309 307 269 326 355 344 338 11 360 342 1 350 350 15 360 341 329 330 292 294 317 334 20 67 83 92 83 77 82 81 39 10 282 315 274 272 269 265 263 264 265 264 265
295 273 223 251 294 277 293 254 319 314 307 328 351 324 325 315 334 355 16 4 1 344 345 331 312 320 332 346 85 83 88 101 98 104 110 49 357 331 299 278 281 276 274 272 272 267 266 266 267
281 276 285 256 283 291 295 281 276 310 340 333 323 348 2 3 8 6 351 336 355 355 341 324 305 299 346 57 98 110 98 112 129 144 124 165 267 265 273 271 271 276 277 277 274 273 274 273 273